Waarnemingen

Advertentie
Mijn weer
St-Hubert, België (6476): temperatuur & dauwpunt: 11.10.2017 17:00:00 - 17.10.2017 17:00:00 (CEST)St-Hubert, België (6476): windsnelheid & windstoten: 11.10.2017 17:00:00 - 17.10.2017 17:00:00 (CEST)St-Hubert, België (6476): windrichting: 11.10.2017 17:00:00 - 17.10.2017 17:00:00 (CEST)St-Hubert, België (6476): luchtdruk: 11.10.2017 17:00:00 - 17.10.2017 17:00:00 (CEST)St-Hubert, België (6476): zicht: 11.10.2017 17:00:00 - 17.10.2017 17:00:00 (CEST)
Datum & Tijd tt [°C] td [°C] ff [km/u] ff [kn] fx [km/u] fx [kn] dd ppp [hPa] vv [km]
17.10.2017 17:00:00 - - - - - - - - -
17.10.2017 16:00:00 18,8 14,5 7 4 11 6 Z 1019,1 13
17.10.2017 15:00:00 18,3 14,2 7 4 18 10 - 1019,9 10
17.10.2017 14:00:00 17,7 13,7 7 4 - - - 1020,7 10
17.10.2017 13:00:00 16,8 13,8 - - - - - 1021,5 12
17.10.2017 12:00:00 16,0 13,4 - - 14 8 - 1022,2 14
17.10.2017 11:00:00 15,1 13,2 4 2 - - - 1022,6 10
17.10.2017 10:00:00 13,5 12,2 7 4 11 6 ZZO 1023,1 -
17.10.2017 09:00:00 11,1 10,3 4 2 7 4 ZZO 1023,7 -
17.10.2017 08:00:00 10,4 9,5 4 2 - - ZZO 1023,6 -
17.10.2017 07:00:00 11,1 9,9 4 2 7 4 ZZW 1023,6 -
17.10.2017 06:00:00 11,5 10,0 4 2 7 4 Z 1023,4 15
17.10.2017 05:00:00 11,1 9,7 4 2 - - ZZW 1023,5 15
17.10.2017 04:00:00 11,4 9,5 4 2 130 70 ZW 1023,6 19
17.10.2017 03:00:00 12,2 10,0 4 2 112 60 Z 1023,4 27
17.10.2017 02:00:00 12,8 10,2 4 2 - - ZZW 1023,4 26
17.10.2017 01:00:00 13,7 10,0 4 2 14 8 ZZW 1023,1 29
17.10.2017 00:00:00 15,1 10,3 7 4 18 10 ZZW 1022,9 35
16.10.2017 23:00:00 15,2 10,2 7 4 - - Z 1022,7 35
16.10.2017 22:00:00 15,6 10,2 7 4 22 12 Z 1022,5 35
16.10.2017 21:00:00 16,3 11,6 11 6 29 16 Z 1022,2 30
16.10.2017 20:00:00 16,2 12,2 14 8 - - ZZO 1021,9 24
16.10.2017 19:00:00 16,4 13,2 11 6 22 12 ZZO 1021,9 21
16.10.2017 18:00:00 18,4 12,9 7 4 29 16 ZZO 1021,4 30
16.10.2017 17:00:00 19,2 12,9 11 6 - - ZZO 1021,5 26
16.10.2017 16:00:00 20,2 12,3 14 8 119 64 ZO 1021,5 30
16.10.2017 15:00:00 20,5 10,1 11 6 22 12 ZZO 1021,8 28
16.10.2017 14:00:00 21,0 10,8 11 6 - - Z 1022,2 28
16.10.2017 13:00:00 20,5 12,2 7 4 22 12 Z 1022,7 30
16.10.2017 12:00:00 18,7 11,4 7 4 22 12 Z 1023,2 30
16.10.2017 11:00:00 17,6 11,9 7 4 - - Z 1023,6 26
16.10.2017 10:00:00 16,0 11,8 7 4 22 12 - 1023,9 26
16.10.2017 09:00:00 14,8 11,5 7 4 14 8 Z 1023,8 30
16.10.2017 08:00:00 13,9 10,7 7 4 - - Z 1023,6 26
16.10.2017 07:00:00 13,5 10,9 7 4 126 68 Z 1023,9 26
16.10.2017 06:00:00 13,6 10,9 7 4 14 8 ZZO 1023,2 27
16.10.2017 05:00:00 13,8 10,6 7 4 - - Z 1023,7 26
16.10.2017 04:00:00 13,8 10,9 4 2 130 70 Z 1023,7 30
16.10.2017 03:00:00 13,9 10,7 7 4 18 10 Z 1024,2 28
16.10.2017 02:00:00 14,0 10,6 7 4 - - Z 1024,3 26
16.10.2017 01:00:00 14,4 10,4 7 4 18 10 - 1024,0 30
16.10.2017 00:00:00 14,5 11,1 7 4 18 10 ZZW 1024,1 25
15.10.2017 23:00:00 14,7 11,3 7 4 - - ZZW 1024,1 24
15.10.2017 22:00:00 14,7 11,9 7 4 22 12 Z 1023,8 18
15.10.2017 21:00:00 14,8 12,0 11 6 22 12 - 1023,6 17
15.10.2017 20:00:00 14,8 12,0 11 6 - - ZZO 1023,4 19
15.10.2017 19:00:00 15,3 11,8 7 4 18 10 - 1023,0 26
15.10.2017 18:00:00 17,3 11,6 7 4 22 12 Z 1022,5 28
15.10.2017 17:00:00 18,7 12,8 7 4 - - Z 1022,2 29
15.10.2017 16:00:00 19,1 11,8 7 4 126 68 ZZO 1022,2 25
15.10.2017 15:00:00 19,3 11,5 7 4 25 14 - 1022,4 30
15.10.2017 14:00:00 19,4 12,1 11 6 - - ZZO 1022,9 35
15.10.2017 13:00:00 17,8 10,9 11 6 22 12 ZZO 1023,7 30
15.10.2017 12:00:00 16,6 11,7 11 6 22 12 ZZO 1024,2 30
15.10.2017 11:00:00 15,5 11,0 7 4 - - ZZO 1024,6 26
15.10.2017 10:00:00 13,5 10,2 4 2 14 8 - 1025,3 17
15.10.2017 09:00:00 12,2 9,8 7 4 14 8 ZZO 1025,4 21
15.10.2017 08:00:00 11,5 9,9 11 6 - - ZZO 1025,4 15
15.10.2017 07:00:00 12,0 10,2 7 4 22 12 - 1025,4 19
15.10.2017 06:00:00 12,2 10,3 11 6 22 12 ZZO 1025,3 23
15.10.2017 05:00:00 12,3 10,0 7 4 - - Z 1025,5 21
15.10.2017 04:00:00 12,2 9,9 7 4 18 10 Z 1025,7 35
15.10.2017 03:00:00 12,1 10,2 11 6 22 12 ZZO 1026,1 24
15.10.2017 02:00:00 12,7 10,7 11 6 - - ZZO 1026,2 26
15.10.2017 01:00:00 12,6 10,6 7 4 22 12 ZZO 1026,7 21
15.10.2017 00:00:00 12,7 10,4 11 6 29 16 ZO 1026,7 30
14.10.2017 23:00:00 12,6 10,7 11 6 - - ZO 1027,0 30
14.10.2017 22:00:00 12,9 11,0 7 4 14 8 OZO 1027,3 35
14.10.2017 21:00:00 13,2 11,4 7 4 11 6 OZO 1027,2 45
14.10.2017 20:00:00 11,9 10,2 4 2 - - ZZO 1027,5 45
14.10.2017 19:00:00 14,8 11,5 4 2 11 6 Z 1026,6 40
14.10.2017 18:00:00 17,2 12,1 4 2 11 6 - 1025,9 40
14.10.2017 17:00:00 18,0 12,7 7 4 - - ZW 1025,9 35
14.10.2017 16:00:00 18,0 12,6 7 4 119 64 - 1026,1 40
14.10.2017 15:00:00 17,9 12,8 7 4 18 10 - 1026,4 30
14.10.2017 14:00:00 17,5 12,5 7 4 - - Z 1026,8 30
14.10.2017 13:00:00 16,6 12,4 4 2 14 8 - 1027,9 19
14.10.2017 12:00:00 15,7 12,7 7 4 18 10 Z 1028,0 25
14.10.2017 11:00:00 14,8 12,6 4 2 - - Z 1028,3 19
14.10.2017 10:00:00 13,7 12,0 7 4 11 6 ZZO 1028,2 18
14.10.2017 09:00:00 11,5 10,6 4 2 11 6 ZZO 1028,3 5
14.10.2017 08:00:00 10,7 9,8 7 4 - - ZZO 1028,0 -
14.10.2017 07:00:00 9,9 8,9 4 2 7 4 ZZO 1028,3 15
14.10.2017 06:00:00 10,5 9,6 4 2 101 54 ZZW 1028,0 17
14.10.2017 05:00:00 10,7 10,1 4 2 - - WZW 1028,1 5
14.10.2017 04:00:00 10,8 10,1 4 2 7 4 ZZW 1028,2 -
14.10.2017 03:00:00 11,4 10,8 4 2 7 4 ZZW 1028,3 3,9
14.10.2017 02:00:00 - - - - - - - - -
14.10.2017 01:00:00 11,4 10,5 - - 11 6 N 1028,0 -
14.10.2017 00:00:00 11,7 10,9 4 2 11 6 - 1027,9 -
13.10.2017 23:00:00 11,4 10,7 4 2 - - ZZW 1027,8 4,8
13.10.2017 22:00:00 11,8 11,0 4 2 104 56 Z 1027,6 5
13.10.2017 21:00:00 11,5 10,7 4 2 11 6 ZZW 1027,5 -
13.10.2017 20:00:00 12,2 11,2 4 2 - - Z 1027,3 17
13.10.2017 19:00:00 14,1 12,2 7 4 14 8 ZW 1026,8 30
13.10.2017 18:00:00 14,8 12,1 7 4 14 8 ZW 1026,5 35
13.10.2017 17:00:00 15,4 11,9 7 4 - - WZW 1026,3 30
13.10.2017 16:00:00 14,8 12,2 11 6 25 14 ZW 1026,7 35
13.10.2017 15:00:00 14,9 12,8 11 6 25 14 WZW 1026,5 28
13.10.2017 14:00:00 14,2 12,4 14 8 - - ZW 1026,7 20
13.10.2017 13:00:00 13,2 12,2 11 6 22 12 ZW 1027,2 6
13.10.2017 12:00:00 12,7 12,1 7 4 18 10 ZW 1027,1 0,2
13.10.2017 11:00:00 12,3 11,7 7 4 - - WZW 1027,3 0,1
13.10.2017 10:00:00 12,2 11,5 7 4 18 10 WZW 1026,7 -
13.10.2017 09:00:00 11,9 11,2 7 4 18 10 ZW 1026,3 0,2
13.10.2017 08:00:00 11,7 11,0 7 4 - - ZW 1026,2 0,1
13.10.2017 07:00:00 11,7 11,0 7 4 14 8 WZW 1026,1 1,8
13.10.2017 06:00:00 11,5 10,7 7 4 22 12 ZW 1025,9 1,8
13.10.2017 05:00:00 11,4 10,7 11 6 - - ZW 1026,0 0,4
13.10.2017 04:00:00 11,2 10,6 7 4 18 10 ZW 1025,9 0,2
13.10.2017 03:00:00 11,3 10,7 7 4 14 8 ZW 1026,1 0,1
13.10.2017 02:00:00 11,3 10,7 7 4 - - ZW 1026,0 0,2
13.10.2017 01:00:00 11,2 10,5 7 4 14 8 ZW 1025,7 0,3
13.10.2017 00:00:00 10,3 9,5 7 4 18 10 WZW 1025,9 3,6
12.10.2017 23:00:00 11,3 10,1 7 4 - - ZW 1025,7 14
12.10.2017 22:00:00 10,6 9,1 4 2 11 6 ZZW 1025,8 23
12.10.2017 21:00:00 10,8 9,0 7 4 11 6 ZW 1025,7 25
12.10.2017 20:00:00 9,6 7,7 7 4 - - ZW 1025,8 28
12.10.2017 19:00:00 11,5 8,3 7 4 18 10 WZW 1025,2 30
12.10.2017 18:00:00 12,8 8,0 11 6 32 18 WZW 1024,4 30
12.10.2017 17:00:00 13,5 7,0 18 10 - - WZW 1024,0 30
12.10.2017 16:00:00 13,5 7,3 14 8 32 18 WZW 1023,8 30
12.10.2017 15:00:00 13,5 7,4 14 8 32 18 WZW 1023,9 30
12.10.2017 14:00:00 13,5 6,9 18 10 - - WZW 1023,7 22
12.10.2017 13:00:00 12,4 6,8 18 10 32 18 W 1023,8 25
12.10.2017 12:00:00 12,1 7,8 18 10 32 18 W 1023,7 24
12.10.2017 11:00:00 11,2 8,1 18 10 - - W 1023,1 20
12.10.2017 10:00:00 10,3 8,7 11 6 32 18 W 1022,3 16
12.10.2017 09:00:00 10,2 8,6 18 10 36 19 W 1021,4 26
12.10.2017 08:00:00 10,7 9,6 14 8 - - W 1020,0 22
12.10.2017 07:00:00 11,1 10,1 14 8 29 16 W 1019,1 20
12.10.2017 06:00:00 11,0 10,3 14 8 32 18 WZW 1018,1 2,1
12.10.2017 05:00:00 11,2 10,1 11 6 - - WZW 1017,8 5
12.10.2017 04:00:00 11,4 10,1 11 6 29 16 WZW 1017,3 17
12.10.2017 03:00:00 11,5 9,9 14 8 29 16 ZW 1017,3 21
12.10.2017 02:00:00 11,5 10,0 14 8 - - ZW 1017,4 28
12.10.2017 01:00:00 11,4 9,8 14 8 29 16 ZW 1017,5 25
12.10.2017 00:00:00 11,5 9,9 14 8 29 16 ZW 1017,5 27
11.10.2017 23:00:00 11,5 9,7 14 8 - - ZW 1017,3 40
11.10.2017 22:00:00 11,1 10,0 14 8 29 16 ZW 1017,6 21
11.10.2017 21:00:00 11,3 10,2 11 6 22 12 ZW 1017,8 17
11.10.2017 20:00:00 11,6 9,9 11 6 - - ZW 1017,4 40
11.10.2017 19:00:00 12,2 9,8 11 6 32 18 ZZW 1016,8 45
11.10.2017 18:00:00 12,4 10,2 14 8 137 74 ZW 1016,6 40
11.10.2017 17:00:00 12,7 9,8 18 10 - - ZW 1016,4 40

tt = temperatuur
td = dauwpunt
ff = windsnelheid
fx = windstoten
dd = windrichting
ppp = luchtdruk
vv = zicht

Weerstations in de omgeving